Wind_Speed
55 53 50 52 55 56 55 54 53 52 49 47 46 44 42 41 39 36 34 32 31 30 28 27 27 26 25 23 22 22 22 21 20 18 18 17 16 15 15 12 11 12 13 12 10 8 7 4 2 2 6 8 8 8 8 8 9 11 13 15 14 13 14 16 17 17 19 20 21 21 22 22 23 24 25 25 25 24 23 22 22 21 20 19 19 18
54 51 52 57 59 58 56 55 54 54 51 49 48 47 45 44 42 39 37 35 33 33 31 29 28 29 28 25 23 23 23 22 20 18 18 17 16 16 15 13 12 12 13 13 11 8 7 5 2 3 5 9 9 8 9 10 10 11 13 15 15 15 15 17 18 18 19 20 21 22 22 22 23 23 24 25 24 23 21 20 20 19 18 17 17 16
51 51 58 62 61 59 58 56 56 56 54 51 50 49 47 47 46 42 39 37 35 36 35 31 30 32 31 28 25 25 23 22 20 19 19 18 18 17 16 14 13 12 12 14 12 8 8 6 3 3 6 9 9 8 8 11 12 12 13 14 16 16 16 17 19 19 19 20 21 22 22 23 23 22 23 23 23 22 21 19 18 17 17 16 16 15
53 59 66 65 62 61 60 59 58 57 55 52 51 50 49 50 48 45 43 41 39 40 38 35 33 34 33 29 27 26 24 23 22 21 21 19 19 18 17 15 13 12 12 13 13 9 8 8 5 4 7 9 11 9 7 10 14 13 13 14 15 16 17 18 19 20 20 20 21 22 23 23 23 22 22 21 21 20 20 19 18 17 16 16 15 14
59 67 69 63 62 63 61 60 59 57 55 54 53 53 53 53 52 50 47 44 43 43 41 37 35 33 32 31 30 28 25 24 24 23 22 21 20 20 19 16 14 13 13 13 13 11 8 9 8 6 8 10 12 11 9 10 13 14 13 14 15 17 18 19 20 21 21 20 21 22 22 22 22 21 20 19 19 20 19 19 18 17 16 15 14 13
64 70 68 63 64 64 62 60 59 58 57 56 54 56 57 57 55 53 49 46 45 45 43 40 35 33 35 35 33 29 27 27 26 25 24 23 22 21 20 18 16 14 13 13 14 13 10 9 9 8 8 10 13 13 12 11 14 16 16 15 16 18 19 20 21 21 21 21 21 21 21 22 22 20 19 18 18 19 19 18 17 16 15 14 13 12
67 71 67 64 64 64 62 61 60 60 58 56 57 60 61 60 58 55 51 48 47 47 47 42 38 37 38 38 35 31 31 30 28 27 25 24 24 23 21 20 18 16 14 13 14 14 12 10 10 10 10 11 13 15 14 14 15 18 18 17 16 18 19 21 22 22 22 22 22 22 22 22 21 20 19 18 18 18 18 17 16 15 14 13 12 11
69 72 67 65 66 64 62 61 62 62 59 60 62 63 63 62 59 57 54 51 49 50 49 43 41 39 38 38 37 34 33 31 30 28 27 26 25 24 23 21 19 18 16 14 15 15 14 11 11 12 12 12 13 15 15 14 15 17 18 18 18 18 20 21 23 23 23 23 23 23 22 21 21 20 20 19 18 18 17 16 15 15 14 13 12 11
73 74 69 69 69 66 63 64 66 64 62 65 67 65 64 64 62 59 56 54 53 53 48 44 43 40 38 39 38 34 33 33 32 31 29 28 27 25 24 23 21 20 19 17 15 15 15 13 12 13 14 14 14 15 16 15 15 15 17 19 19 19 19 21 23 24 24 24 23 23 22 22 22 21 20 19 18 17 17 16 15 15 14 13 12 11
79 77 75 74 71 67 67 70 70 66 65 70 70 67 67 66 64 61 57 56 56 52 47 46 45 41 39 40 37 33 33 35 37 34 31 31 30 27 26 24 23 22 21 19 17 16 16 15 14 15 16 16 15 16 17 16 16 17 18 20 21 20 20 21 23 25 25 25 24 23 23 23 23 22 21 20 19 18 17 16 16 15 14 13 12 11
82 81 80 76 71 70 72 74 72 69 71 74 72 69 68 67 64 61 58 58 56 49 46 47 46 43 41 39 36 34 36 40 40 37 34 33 32 30 28 26 25 24 24 22 20 18 18 17 16 16 18 18 17 18 18 18 18 18 19 20 22 22 21 21 23 25 26 25 25 24 24 23 23 22 22 21 20 19 18 17 16 16 15 13 12 11
85 84 81 77 74 75 76 76 74 72 75 75 72 69 69 68 66 61 58 58 52 46 46 48 46 43 40 38 37 37 40 43 41 39 37 36 34 31 29 28 26 26 26 25 23 21 19 19 18 18 19 20 19 19 19 19 19 18 18 20 22 24 23 22 23 24 25 26 26 25 25 24 23 22 22 21 20 19 18 18 17 16 15 14 13 12
88 86 83 81 79 79 78 78 76 74 75 74 72 71 69 68 65 60 57 55 49 45 47 48 46 42 40 40 40 40 42 43 42 42 39 37 35 33 30 28 27 28 28 27 26 24 22 20 20 20 20 21 21 21 21 21 21 19 18 20 22 24 25 24 23 24 25 26 26 26 25 24 23 22 22 21 21 20 19 18 17 16 15 14 13 12
91 90 88 85 82 80 78 78 76 74 74 73 72 70 69 68 63 58 55 53 49 47 49 50 47 42 42 44 42 43 45 45 44 43 40 38 37 34 31 29 28 29 30 29 28 26 24 22 22 22 21 22 22 23 23 23 23 22 21 21 22 24 26 25 25 24 24 25 26 26 25 24 23 22 21 21 20 20 20 18 17 16 15 15 14 14
95 94 91 86 82 81 80 79 77 76 76 75 73 72 70 67 62 58 58 56 52 51 52 51 47 43 45 48 47 47 48 46 45 44 42 40 38 35 33 30 30 31 31 30 29 28 26 24 24 24 23 23 24 25 25 25 25 25 24 22 22 24 27 27 26 26 25 25 26 26 26 25 24 23 22 21 21 20 20 19 18 17 16 16 16 15
97 94 92 89 87 86 84 81 80 80 79 77 76 74 69 64 63 64 63 61 58 57 55 53 48 46 50 54 52 49 48 46 46 46 44 41 39 37 34 33 32 33 33 32 30 29 28 27 26 26 26 25 25 26 27 28 27 27 26 25 23 24 27 28 28 28 27 26 26 26 26 25 24 24 23 21 21 20 20 19 19 19 18 17 17 17
97 94 94 94 92 90 86 83 84 82 79 78 78 71 65 66 70 70 66 64 62 59 57 54 51 50 53 55 52 49 48 47 46 46 44 43 42 40 38 36 34 34 34 32 31 30 29 29 28 28 28 28 27 27 28 29 29 28 28 27 25 24 26 29 30 29 29 29 28 27 26 26 25 24 23 21 21 20 21 20 20 20 19 19 19 18
95 92 94 95 91 89 88 88 89 86 83 83 78 70 70 76 76 71 67 66 62 58 57 56 53 52 53 54 52 50 48 48 47 46 45 45 44 42 40 38 35 34 33 32 32 31 31 31 31 30 31 30 29 28 29 31 31 30 29 29 28 27 27 29 30 30 31 31 30 29 28 27 26 25 24 23 23 22 22 21 21 20 20 20 20 19
94 91 94 95 91 91 92 94 94 91 88 85 79 76 80 81 76 70 67 64 60 58 58 58 55 51 53 55 54 51 50 49 48 47 46 45 44 44 43 39 36 35 33 32 33 32 32 34 34 33 33 33 31 30 31 32 33 32 32 32 31 30 28 28 29 30 32 32 32 31 30 29 27 26 26 25 25 24 22 22 22 21 22 22 21 21
95 92 94 96 94 95 97 97 95 91 88 85 82 83 84 81 75 72 70 66 63 61 60 59 56 52 54 58 56 54 53 52 50 48 46 45 45 46 45 42 39 37 35 34 35 35 35 36 36 35 35 35 34 32 32 33 34 34 33 33 33 31 30 30 31 33 34 34 34 33 32 31 30 29 28 27 26 25 24 24 23 23 23 23 22 22
97 95 96 96 95 95 97 96 91 87 87 85 84 84 82 78 76 75 73 71 69 65 63 62 58 54 57 61 61 58 57 54 51 49 47 45 45 47 47 44 41 39 37 37 37 38 38 37 37 37 37 37 35 34 33 33 35 35 34 33 33 33 32 33 34 34 34 34 34 34 34 33 32 31 30 29 27 26 26 26 26 25 25 25 24 23
100 97 97 98 96 94 95 92 88 87 88 86 85 84 82 79 79 79 75 71 69 66 64 63 59 57 61 66 65 61 58 54 51 48 46 45 45 46 47 46 44 42 40 39 40 40 40 39 38 38 38 38 38 36 35 34 34 35 35 33 33 35 35 35 35 34 33 34 35 35 35 34 33 32 31 29 29 28 28 28 28 28 27 26 25 24
102 99 99 100 97 94 92 90 88 88 87 86 85 84 84 83 82 79 72 68 67 65 63 62 58 60 66 69 65 61 56 53 51 48 46 45 45 46 48 49 47 45 42 42 42 42 42 40 39 39 40 40 40 38 36 35 34 34 35 34 34 37 38 37 36 35 34 34 35 36 36 35 34 33 32 31 31 31 31 30 30 29 28 27 26 25
102 100 100 100 98 94 93 92 90 88 87 86 85 85 86 84 81 77 71 70 70 67 64 60 57 62 68 66 63 59 55 53 52 49 46 45 46 48 50 51 49 47 45 43 44 44 43 41 40 40 41 42 42 39 37 37 35 34 34 35 36 37 39 38 37 36 35 35 35 36 37 36 35 34 33 32 33 34 33 32 32 30 29 28 27 26
101 101 101 102 101 99 98 98 95 93 91 89 86 85 84 80 78 77 76 77 75 70 67 63 61 65 67 62 60 58 54 53 51 48 46 46 48 49 51 51 50 48 47 45 44 43 42 41 41 41 42 44 44 41 39 39 37 35 35 36 37 38 39 40 39 38 37 36 36 37 38 39 38 36 35 34 35 35 35 34 33 31 31 30 29 28
100 100 100 103 104 103 101 101 98 96 94 90 86 83 81 78 77 76 77 77 73 70 68 64 64 69 68 63 61 58 54 52 50 48 47 47 49 50 51 51 50 49 48 45 43 41 40 40 42 43 44 45 45 43 41 40 39 37 35 35 37 39 40 41 41 40 39 38 37 38 40 40 40 38 37 36 36 36 36 35 34 32 32 31 30 30
100 98 99 102 104 103 101 99 97 95 92 88 84 81 79 77 75 75 74 71 68 68 66 63 66 70 68 64 62 59 56 53 50 49 49 49 50 51 51 51 50 49 48 45 43 41 40 41 43 44 46 47 47 46 43 42 41 39 37 36 38 40 41 42 42 41 40 39 39 39 40 42 41 40 38 38 38 37 37 36 35 34 33 32 32 31
101 98 97 100 102 102 101 99 96 94 91 87 84 81 78 77 75 73 70 66 65 65 63 63 68 69 65 62 61 60 57 53 51 51 51 51 52 52 52 51 49 48 46 44 41 39 39 41 42 45 47 48 48 47 45 43 42 41 39 38 38 39 41 42 42 42 41 41 40 40 41 42 42 41 40 40 40 40 39 38 37 35 35 34 33 33
102 99 97 98 101 100 99 98 96 95 92 89 86 83 80 78 75 71 67 65 65 63 60 64 70 68 64 62 62 59 56 53 51 52 53 52 53 53 52 51 49 47 44 42 40 39 39 40 42 44 46 47 49 49 47 46 44 42 41 40 39 39 39 41 42 42 42 42 41 41 42 42 42 43 43 43 43 42 41 39 38 37 36 36 35 34
102 100 97 97 99 97 97 98 97 95 93 91 88 85 82 79 74 70 67 67 66 63 64 68 70 68 65 64 63 60 55 52 51 52 52 51 52 53 52 51 49 46 43 41 39 39 40 41 43 44 45 46 49 50 49 48 47 45 43 41 40 39 38 39 40 42 43 42 41 41 41 42 43 44 45 45 45 43 41 40 39 38 38 37 36 36
101 100 98 97 97 95 95 97 97 96 95 93 90 86 83 79 75 72 71 71 68 67 69 70 69 68 66 63 62 58 54 52 51 51 51 50 51 51 51 50 48 45 42 40 39 40 40 41 43 45 45 46 49 50 51 50 49 47 45 42 41 40 38 37 37 39 41 42 42 41 42 43 45 45 46 46 45 44 43 42 40 40 39 38 38 38
100 100 98 97 96 95 95 97 97 97 97 94 90 86 84 82 79 77 76 74 71 70 70 70 69 68 66 63 61 58 54 52 51 51 51 50 50 50 50 50 49 45 42 40 39 40 41 42 44 45 45 47 50 50 51 51 50 48 46 44 42 41 40 37 35 36 38 40 42 43 43 44 45 46 47 47 46 46 45 43 42 42 41 40 39 39
100 100 98 97 97 95 95 96 97 97 96 94 91 87 86 85 83 80 78 75 74 73 71 70 71 70 67 63 61 57 55 53 51 52 52 51 50 50 51 51 50 46 42 40 40 40 41 44 46 46 47 49 51 52 52 52 51 49 48 47 45 43 41 39 37 35 34 37 42 44 44 44 45 46 47 47 47 47 47 46 45 44 43 42 40 40
99 99 98 98 98 95 95 96 96 95 96 94 91 89 89 88 86 83 80 77 75 75 74 73 74 72 67 63 60 58 56 54 53 54 54 51 50 51 52 52 50 45 42 40 40 40 41 43 46 47 49 50 51 52 53 52 52 51 49 47 46 44 43 41 39 36 34 35 40 43 44 44 44 46 47 47 47 47 48 48 48 46 45 43 42 42
99 98 98 99 99 97 96 95 93 94 95 93 91 90 90 89 87 83 81 79 77 76 77 77 76 72 67 63 60 58 57 56 55 56 56 52 51 52 53 53 50 45 42 40 40 41 41 43 46 48 49 49 50 51 52 53 53 52 50 48 47 46 44 42 40 37 35 35 37 40 42 43 43 44 45 46 47 48 49 49 49 48 47 45 45 43
99 98 98 100 100 98 97 94 91 91 93 91 89 90 91 90 87 84 82 80 80 80 80 80 77 72 68 64 61 59 58 57 56 57 57 54 53 55 55 53 50 46 42 41 42 42 42 43 45 47 48 49 49 51 53 54 54 52 52 50 49 47 46 44 42 39 36 35 35 36 39 40 40 41 42 45 47 49 50 50 50 50 48 47 46 44
99 98 99 101 100 99 97 92 88 88 88 89 90 91 93 92 88 86 84 83 82 81 81 80 77 72 68 65 62 60 59 58 58 58 58 57 57 57 55 53 52 48 44 42 42 43 43 44 46 47 48 49 49 51 53 55 54 54 53 52 51 49 48 46 44 40 38 36 35 34 35 36 37 39 40 43 46 49 50 51 51 50 49 48 47 45
100 99 100 101 101 100 96 91 88 82 76 81 90 93 93 92 89 86 85 83 82 82 81 80 76 71 68 66 63 62 61 60 59 59 59 59 60 58 55 54 53 49 45 42 43 44 45 45 46 47 48 49 50 51 53 55 56 56 55 54 53 51 49 47 46 43 40 38 36 34 33 34 35 36 38 40 44 47 49 51 51 51 51 50 49 47
101 101 101 101 100 99 95 90 88 80 69 72 85 92 92 91 89 87 85 84 83 83 82 80 77 73 69 67 64 62 62 62 60 59 60 61 60 58 56 55 54 50 46 43 44 45 45 45 45 46 47 49 49 50 51 53 54 56 56 56 54 53 51 49 47 45 42 40 38 35 33 32 33 34 35 37 41 44 47 50 51 51 51 51 50 48
101 100 101 101 99 98 94 89 87 84 76 72 78 87 91 91 89 88 87 86 85 84 82 80 77 74 71 68 65 63 63 63 61 59 60 61 60 58 56 55 54 51 47 46 46 46 45 44 44 44 45 46 47 48 48 49 51 53 55 55 54 53 52 49 47 45 44 42 41 38 35 32 32 33 34 36 39 42 45 48 49 50 51 51 49 47
100 101 102 102 99 96 95 90 88 88 85 78 76 82 89 90 90 89 89 88 86 84 81 79 77 74 72 69 66 65 64 63 61 61 60 60 60 58 56 55 53 51 48 47 46 46 45 44 43 42 42 42 44 45 46 46 47 49 51 53 54 53 52 50 48 46 45 44 43 40 38 35 33 33 34 35 37 40 43 46 47 48 48 48 47 46
100 102 103 102 99 97 95 92 89 89 87 80 75 79 85 89 90 90 89 89 87 84 81 78 75 73 71 69 67 65 64 63 62 61 61 60 59 58 56 54 53 51 49 48 46 45 44 43 42 41 40 39 40 41 43 44 45 47 48 50 52 53 53 53 51 49 47 46 45 43 41 39 36 34 33 34 36 38 41 43 44 44 45 46 45 45
100 102 103 102 100 99 97 93 90 88 85 78 71 72 78 85 89 90 89 89 89 86 82 77 74 72 71 69 67 65 64 64 62 61 61 61 59 58 56 54 53 52 50 48 47 45 44 43 42 40 39 38 37 38 39 41 43 45 47 49 51 53 54 54 53 52 50 48 47 46 45 43 41 38 36 35 35 37 38 40 41 42 43 44 45 45
100 102 104 103 100 99 98 94 91 89 84 77 71 69 72 78 83 87 89 89 88 87 83 79 75 72 71 70 69 66 65 64 62 61 61 61 60 59 57 55 54 53 51 50 48 46 45 44 43 41 39 37 36 36 36 38 40 42 45 47 49 51 53 54 54 54 53 51 50 49 48 47 45 43 41 40 38 38 39 39 39 40 41 43 44 45
101 103 105 105 102 100 97 94 93 90 84 77 72 67 65 67 73 78 83 85 86 85 83 80 76 73 71 71 70 68 66 65 64 62 62 62 62 60 58 56 55 54 52 51 49 48 47 46 45 43 40 38 37 36 35 36 38 39 42 44 47 49 52 53 54 55 54 53 52 51 51 50 48 47 46 44 42 41 41 40 40 40 41 42 43 44
101 104 105 104 102 100 98 94 93 92 85 77 70 64 59 59 64 69 73 77 80 82 81 80 77 74 73 72 71 70 68 66 65 64 64 63 63 62 60 58 56 55 53 52 51 50 49 48 47 45 43 40 38 36 36 36 37 38 39 41 44 46 49 51 53 54 55 55 54 53 52 51 50 49 48 46 45 44 43 42 42 42 42 43 43 44
100 102 104 103 101 100 98 96 93 91 86 78 70 65 62 58 58 64 68 69 72 77 79 80 78 75 74 73 72 71 69 68 67 65 65 64 64 63 61 60 58 57 55 54 53 52 50 49 48 47 45 42 40 38 37 36 36 37 38 39 41 44 46 48 50 52 54 55 55 54 53 52 52 51 50 50 48 47 46 45 45 45 45 45 45 45
99 101 102 102 100 100 99 97 95 91 87 79 72 68 67 61 57 62 67 66 65 68 73 78 79 77 75 74 73 72 71 69 68 67 65 64 64 64 63 61 59 59 58 56 55 54 52 50 49 48 47 44 42 40 39 38 37 37 37 38 39 41 43 45 47 49 51 53 54 54 54 54 53 52 52 53 52 51 50 49 49 49 49 48 48 48
98 100 101 101 100 100 99 98 96 92 87 82 75 71 68 63 59 62 66 65 62 60 63 72 78 78 77 75 74 72 71 70 69 68 66 65 65 65 65 63 62 61 60 59 57 56 54 52 50 49 48 45 44 43 41 40 39 39 38 38 38 38 40 42 43 45 48 50 52 53 54 54 54 54 54 54 54 53 53 53 52 52 52 51 51 51
97 100 101 101 100 100 100 98 97 95 89 83 78 73 70 66 63 63 65 66 64 60 58 63 72 76 77 76 74 72 71 70 69 68 67 66 66 66 66 65 64 62 61 60 59 58 55 53 52 51 50 48 46 45 44 42 41 40 39 39 37 37 37 38 39 41 43 45 47 49 51 52 53 54 55 55 55 55 55 55 55 55 55 54 54 54
96 99 101 101 100 101 101 99 98 97 92 86 81 76 73 71 66 62 62 64 64 63 62 60 62 68 72 74 74 72 71 71 70 69 69 68 68 68 68 67 65 63 61 61 61 60 57 56 55 54 53 52 50 48 46 45 44 42 41 40 39 38 37 36 37 38 39 41 42 44 46 48 50 52 53 54 55 56 56 57 57 57 57 57 56 56
Wind_Direction
234 235 235 236 235 232 231 232 234 236 236 237 239 240 240 239 237 234 232 232 233 234 235 239 244 244 243 243 245 249 252 253 256 260 262 266 269 271 274 278 280 286 297 304 307 311 315 326 314 231 165 163 162 149 138 138 152 167 159 148 146 149 156 159 157 154 148 144 142 140 141 141 140 137 134 133 131 128 125 121 119 118 116 114 111 108
233 235 237 236 234 233 232 232 234 235 235 235 237 239 239 240 238 236 235 234 235 235 234 237 243 246 245 243 244 246 250 254 257 259 261 265 267 268 271 275 279 283 290 297 300 302 302 305 286 223 178 169 170 161 146 141 154 176 170 156 152 153 159 162 162 159 154 149 147 145 144 145 144 142 139 138 136 133 129 126 124 123 121 119 117 114
231 233 236 235 233 232 232 232 232 234 234 234 236 237 238 239 238 236 235 235 236 236 234 233 239 245 244 243 244 247 250 255 257 258 260 263 264 265 269 273 277 280 283 291 295 291 291 289 258 211 191 178 176 172 158 150 159 180 183 167 159 157 161 166 165 162 159 154 151 149 148 147 147 146 144 142 141 138 134 131 130 129 126 124 123 120
229 231 233 232 232 232 231 231 232 232 233 233 235 236 236 237 237 235 233 233 234 236 234 231 235 242 246 246 246 247 249 252 255 256 258 259 260 262 266 270 273 274 278 286 288 286 281 276 254 211 198 188 180 178 169 158 160 178 191 180 166 161 161 167 168 165 164 160 157 155 153 152 151 149 148 148 146 144 141 138 136 134 132 130 127 124
229 231 233 232 232 232 231 231 232 232 232 232 233 234 235 235 234 233 232 232 234 236 235 232 233 241 247 247 246 246 248 250 251 253 255 257 258 261 264 267 268 270 275 279 280 280 276 267 256 226 206 197 188 181 173 165 162 174 194 190 173 166 165 169 171 169 168 166 161 159 158 157 157 156 155 155 153 150 147 144 142 140 139 136 134 131
230 233 233 232 232 232 232 233 233 233 232 231 233 234 234 233 233 233 232 232 234 236 237 234 232 236 243 245 245 245 246 247 248 250 253 255 258 261 263 265 265 267 271 273 274 277 274 262 254 239 217 204 198 191 179 170 169 175 192 196 183 174 171 171 174 173 171 170 166 163 163 164 164 165 165 163 161 157 153 150 148 148 148 146 144 142
232 234 233 232 232 232 232 232 233 233 233 232 233 234 234 233 233 233 232 232 233 236 236 234 231 233 239 244 245 244 245 246 247 250 252 254 257 261 263 264 265 265 266 268 270 272 271 261 249 240 227 211 205 202 191 179 177 179 187 195 192 183 178 175 176 175 175 175 172 170 169 169 169 169 170 170 167 164 161 158 156 156 157 157 156 154
235 236 234 233 233 232 232 232 233 232 232 232 232 233 233 233 233 232 231 231 232 234 236 235 233 233 238 243 245 245 247 248 248 249 250 252 254 257 260 262 264 265 263 263 265 266 265 258 247 238 230 220 211 210 205 192 183 182 185 191 196 192 185 182 179 179 180 180 178 176 174 173 173 174 175 175 174 172 170 168 167 166 167 168 168 166
233 234 232 231 231 230 230 231 231 230 230 232 232 232 233 232 231 230 230 230 231 234 236 236 236 235 236 241 244 246 249 251 249 247 247 249 250 252 255 258 261 263 262 260 259 260 259 254 247 239 233 225 216 212 214 206 189 184 187 190 195 197 193 187 184 184 184 184 183 181 179 180 180 180 180 181 182 181 180 179 178 178 178 179 180 179
231 232 230 229 229 228 229 230 230 228 230 233 233 232 234 233 231 231 230 231 232 233 235 237 237 236 236 240 244 246 248 249 247 245 244 245 247 247 250 253 256 258 260 259 257 255 254 251 247 240 234 229 220 213 214 213 200 188 189 192 195 199 198 192 190 190 188 187 187 186 186 187 186 185 186 187 189 189 188 187 188 188 188 189 190 192
232 232 231 229 228 228 228 229 229 227 230 232 232 232 234 234 233 231 231 232 233 233 235 238 238 237 237 240 243 243 243 245 246 246 244 245 245 245 246 249 252 255 258 258 256 252 250 249 245 240 235 230 224 216 213 216 212 197 189 193 197 200 202 198 196 195 193 190 190 191 192 192 190 190 189 190 191 192 193 194 194 196 196 196 198 200
233 233 233 231 228 228 228 230 229 228 230 232 233 232 234 235 234 232 231 233 234 234 236 238 238 238 240 241 240 239 241 245 248 248 246 245 246 246 246 248 251 254 256 257 256 252 248 246 244 239 235 231 226 221 214 216 219 208 193 193 199 203 205 203 200 200 197 195 194 195 196 196 195 194 193 192 193 196 198 199 200 201 202 203 205 207
234 234 234 232 230 229 229 230 230 229 231 233 234 234 235 236 235 233 233 234 233 232 235 237 237 237 239 239 238 239 242 245 247 247 247 248 249 249 248 249 251 253 255 255 255 253 248 244 243 240 236 232 228 223 217 216 219 214 201 196 200 206 208 208 205 203 201 200 200 199 199 199 198 199 199 198 198 200 203 205 206 207 209 211 213 215
232 233 233 232 232 231 230 231 231 231 232 234 235 235 236 237 237 236 236 236 233 233 235 236 235 233 235 237 236 237 240 243 245 248 250 251 251 251 251 250 251 253 254 254 254 253 249 242 241 241 238 234 230 224 220 217 218 216 207 199 201 207 212 212 208 206 205 205 205 204 203 202 202 203 204 203 204 205 208 211 212 214 215 217 219 221
230 231 232 233 233 234 233 232 232 232 232 233 234 234 234 236 236 236 235 234 231 231 234 235 234 232 234 236 234 234 238 242 246 250 251 252 253 253 252 252 252 253 253 253 252 252 249 243 240 240 239 236 233 227 222 219 219 218 211 202 200 207 214 215 211 209 208 208 209 208 206 205 205 206 207 208 210 212 213 216 218 220 221 223 224 225
228 229 230 231 231 232 232 232 232 232 232 233 234 234 234 236 236 234 233 232 230 229 232 233 233 233 235 236 236 237 240 243 246 250 252 253 253 252 251 251 250 251 252 251 250 249 247 243 239 239 240 237 235 230 224 220 220 220 216 206 201 207 215 218 215 212 210 209 211 212 211 209 208 208 210 212 214 216 218 220 222 224 226 227 228 227
227 227 229 229 229 230 230 231 233 233 233 234 234 235 236 236 235 233 232 231 230 230 232 234 233 234 238 240 240 239 241 243 246 249 252 252 252 252 250 249 248 249 250 250 249 246 245 243 239 238 239 238 235 232 225 222 220 221 220 212 203 205 214 219 218 214 212 211 211 212 212 212 212 211 212 214 216 218 221 223 226 229 230 231 231 230
227 226 228 229 229 230 230 230 231 231 231 232 232 232 233 234 234 233 232 232 231 231 233 235 234 236 241 243 242 241 241 243 245 247 249 251 253 253 252 250 249 248 248 248 247 245 242 241 239 236 237 237 235 232 226 222 220 220 220 216 207 205 212 219 220 218 216 215 214 213 213 213 214 213 213 213 216 218 221 223 227 231 233 233 233 231
226 225 227 228 227 228 230 230 230 230 230 230 230 230 231 232 233 234 234 235 234 233 234 235 234 236 241 244 243 241 241 242 244 245 247 250 253 255 253 250 247 245 244 244 244 242 238 237 236 234 235 235 234 232 227 222 220 219 219 219 213 208 210 218 223 223 221 219 218 216 215 213 213 213 213 213 215 218 220 223 225 229 232 233 233 231
224 224 227 228 226 226 228 229 230 231 231 231 230 231 232 233 233 233 233 232 232 231 232 234 233 233 238 242 242 241 240 241 242 243 246 248 251 253 252 249 245 242 238 237 238 238 235 233 233 232 232 234 233 231 229 225 222 221 221 222 219 212 209 214 221 223 223 221 220 220 219 215 214 213 213 214 215 216 219 220 222 224 227 229 230 231
222 222 225 227 226 226 228 229 229 230 232 232 232 233 235 235 236 236 234 233 232 230 230 232 232 231 236 240 241 240 240 240 241 242 244 245 247 250 251 249 245 241 236 233 233 234 233 231 230 230 231 232 232 231 229 226 223 222 222 223 223 218 212 213 218 221 223 224 224 224 223 220 218 216 215 215 215 216 218 220 220 221 222 225 226 228
221 221 223 226 226 226 228 229 228 228 230 230 231 233 234 234 235 236 236 236 236 235 234 234 233 232 235 238 239 240 241 242 242 242 243 243 244 247 250 249 246 242 237 233 232 232 232 230 228 228 229 230 231 230 228 227 225 224 223 222 223 222 217 215 217 220 222 224 226 228 228 226 223 221 218 215 215 217 219 219 219 220 221 222 223 225
220 220 221 224 225 225 227 228 227 227 228 229 229 230 231 232 232 234 235 236 237 236 236 236 235 234 235 237 239 241 242 242 242 241 240 240 241 243 245 246 245 242 239 236 234 232 231 230 228 227 227 229 230 229 229 228 226 225 225 223 222 222 220 219 218 219 220 223 226 229 232 231 228 225 221 217 215 216 218 219 219 220 221 222 223 225
219 218 219 223 224 224 225 226 225 225 226 227 228 229 231 231 232 233 232 232 233 232 232 232 232 234 236 238 240 241 241 241 241 240 238 238 239 240 242 244 244 243 240 238 237 235 232 230 228 227 227 228 229 228 228 228 227 225 225 225 223 221 221 221 220 220 220 221 224 227 231 232 231 227 224 220 218 218 219 219 220 220 220 221 223 226
218 216 217 220 222 221 222 222 223 223 223 224 225 226 229 230 231 231 230 231 231 229 229 228 227 231 233 234 236 237 238 238 239 238 237 236 237 239 241 243 242 242 240 238 237 237 234 231 229 227 226 227 228 227 226 227 227 225 224 225 225 223 222 221 221 221 221 221 222 225 229 231 231 229 226 223 221 221 221 222 221 221 221 221 224 226
217 215 215 219 221 221 221 222 222 223 223 223 223 224 226 227 228 230 231 231 231 231 230 229 228 231 232 232 233 233 233 233 233 233 233 233 236 237 239 242 241 240 239 238 236 236 233 230 229 228 227 227 227 226 226 226 226 225 224 224 225 224 223 223 223 223 223 221 220 223 227 231 232 232 230 227 225 224 224 224 223 223 223 224 226 229
216 214 213 217 220 221 222 222 223 224 225 224 223 223 225 226 227 228 229 230 231 231 230 228 228 232 233 232 232 231 229 228 228 228 229 231 233 236 238 240 241 240 239 237 235 234 231 229 228 227 227 227 227 226 225 226 226 226 224 224 225 225 224 224 225 226 226 223 220 220 224 229 232 233 233 230 228 226 225 225 224 225 226 227 229 231
214 213 212 215 218 220 221 222 222 224 225 224 223 222 223 225 226 227 228 229 230 230 230 228 229 231 231 231 231 231 229 228 226 226 227 229 232 234 236 239 240 241 241 239 237 234 231 230 228 227 226 227 228 227 226 225 226 226 225 224 225 226 227 227 227 228 228 227 223 220 221 225 230 232 233 232 230 228 226 225 225 226 227 229 231 234
212 211 210 213 216 218 219 221 221 222 223 223 222 221 221 223 223 224 226 227 228 228 227 228 229 230 229 229 229 229 228 227 228 228 228 229 231 234 236 238 240 241 243 242 240 237 233 230 229 228 226 226 228 228 227 226 225 226 226 225 226 226 227 228 228 229 230 231 230 225 221 222 227 231 233 233 232 231 229 228 227 227 229 231 234 237
210 209 209 211 214 216 217 219 220 220 221 221 221 221 221 221 222 222 222 223 225 225 224 226 228 228 228 227 228 228 227 227 228 231 232 232 233 235 237 238 239 239 241 241 240 237 233 230 229 228 226 226 227 228 228 226 225 226 226 226 227 227 228 228 228 230 231 234 235 233 226 222 224 229 232 234 235 235 234 232 230 230 231 233 235 238
208 208 207 209 212 214 215 217 218 218 219 220 220 220 220 220 220 220 220 220 221 222 224 225 226 227 227 227 229 229 228 227 228 231 233 234 235 236 238 240 240 239 238 238 237 236 234 231 230 228 226 226 227 228 228 227 226 226 227 227 228 229 229 228 229 231 232 234 235 236 232 225 223 226 230 234 236 238 237 236 234 233 234 235 237 240
206 206 205 206 210 212 213 215 216 216 218 218 218 218 218 218 218 218 219 218 218 220 223 225 226 227 227 226 228 228 227 227 229 231 233 234 235 237 238 239 239 238 236 235 234 233 233 232 231 229 227 227 228 228 228 228 227 226 226 226 227 228 228 229 230 232 234 233 234 234 234 230 226 225 228 232 235 237 238 238 237 237 237 238 240 242
204 204 203 204 208 210 212 214 214 215 216 216 216 216 216 216 216 217 218 218 217 218 221 224 226 227 226 226 227 227 227 227 229 231 233 234 235 237 238 238 239 237 235 234 232 231 231 231 231 229 227 226 227 228 228 228 228 227 226 226 227 228 229 229 230 232 234 233 233 233 234 233 230 227 227 229 232 236 238 239 239 239 240 241 243 245
202 203 202 203 206 208 211 212 213 214 214 214 214 214 215 216 216 215 216 217 217 218 219 222 225 226 226 226 226 227 228 228 229 232 233 233 235 237 239 240 239 238 236 235 234 232 231 232 232 231 229 227 227 228 228 228 228 228 228 228 228 229 230 231 231 232 234 234 233 233 234 235 234 232 230 228 230 234 237 239 240 241 242 243 244 246
201 200 200 202 204 207 209 211 211 213 214 213 212 213 215 216 216 215 215 217 218 218 219 221 223 224 224 225 226 227 228 229 230 233 234 233 234 237 238 239 239 238 236 236 235 234 232 231 232 233 232 230 228 228 229 229 228 229 229 229 229 229 231 232 232 232 233 235 235 235 235 236 237 237 235 232 231 233 236 239 240 242 242 243 244 246
199 198 199 201 203 205 208 209 209 212 213 212 211 213 215 215 215 214 215 216 217 219 219 221 222 222 222 224 225 227 229 230 231 233 234 233 234 236 237 238 239 237 235 234 235 234 232 231 231 232 232 231 230 228 228 229 229 228 228 228 228 229 231 232 233 232 232 234 235 234 235 237 238 240 240 237 235 234 235 238 240 241 243 244 245 246
197 197 198 200 202 204 207 207 207 211 212 211 210 212 214 214 214 213 213 215 217 219 220 222 222 221 220 222 223 225 228 230 231 234 235 234 234 235 236 238 239 237 234 234 234 234 233 231 230 230 230 230 230 228 228 228 228 228 228 228 228 228 229 231 232 232 232 234 234 233 233 235 237 239 240 240 239 237 237 238 239 241 242 244 245 246
195 195 198 200 201 203 205 205 205 208 210 210 210 212 213 214 213 213 213 214 216 219 221 222 222 221 221 221 222 224 227 229 231 233 235 236 236 236 237 238 239 237 234 232 232 233 232 231 230 229 229 229 228 228 227 227 227 227 227 227 227 227 228 229 231 232 232 233 234 234 234 235 236 238 238 240 240 240 240 240 241 241 242 244 245 247
194 194 197 200 201 202 203 203 204 205 206 208 210 212 213 213 213 213 213 214 215 217 220 221 222 221 221 221 222 223 226 229 230 232 235 236 237 237 237 237 238 237 234 231 230 231 231 231 230 229 229 229 229 229 228 228 228 228 228 229 229 229 229 230 231 231 232 233 234 235 236 237 237 238 238 239 241 241 242 242 243 243 243 244 245 246
193 192 196 199 200 201 202 201 202 204 204 205 207 210 213 213 212 213 213 214 215 216 218 219 220 220 220 221 221 223 226 228 229 230 233 235 236 236 235 236 237 236 233 230 229 230 230 230 230 229 229 229 230 230 231 230 229 229 229 230 230 231 232 232 232 233 233 234 234 234 234 235 236 237 238 238 240 241 242 243 243 243 244 245 246 247
192 192 196 199 199 200 201 200 201 203 205 205 205 208 211 212 212 213 213 213 214 215 216 218 218 219 219 219 220 222 224 227 227 228 230 232 234 234 234 234 235 234 233 230 228 228 228 228 228 229 229 229 229 229 231 231 231 231 230 231 231 232 232 232 233 233 233 233 234 233 233 233 233 234 234 235 237 239 241 242 243 243 245 246 247 248
191 191 196 198 197 199 200 200 200 203 205 205 206 208 210 211 212 213 213 213 214 214 214 216 217 218 217 217 218 220 222 224 225 226 228 229 231 233 233 233 234 233 232 230 229 227 227 227 227 228 229 230 229 229 229 229 230 231 231 231 232 232 232 232 232 232 231 232 233 233 233 232 231 232 232 232 235 237 239 241 242 243 245 246 248 249
190 191 195 197 197 198 200 199 199 202 203 203 203 207 210 212 213 213 213 213 214 213 212 213 215 217 217 216 216 217 220 222 222 224 226 228 230 231 232 232 233 233 232 231 229 228 227 227 227 228 230 231 231 230 229 228 228 229 230 230 231 232 232 233 232 232 231 231 231 232 232 231 230 230 231 232 233 236 239 240 241 242 244 246 247 249
189 191 194 196 196 198 199 198 198 200 201 200 200 202 208 212 214 215 215 214 214 213 211 211 212 215 216 216 215 215 218 220 220 221 224 226 228 229 230 232 232 232 232 231 229 229 227 227 227 227 228 230 231 232 231 230 229 229 229 230 230 231 232 233 233 234 233 233 232 233 233 233 231 230 231 232 233 236 238 240 241 242 244 245 247 248
189 191 194 195 194 196 199 198 198 199 199 199 198 198 202 209 214 216 218 218 216 214 213 211 211 212 215 216 215 214 216 218 219 220 222 224 226 228 228 230 231 231 231 231 230 229 228 227 226 225 225 227 228 230 231 232 232 232 231 230 231 231 232 232 233 234 234 234 234 234 235 235 234 233 233 233 235 236 239 241 243 244 246 246 247 249
190 191 193 194 194 195 197 198 198 199 199 198 196 194 196 203 209 212 217 220 220 217 214 212 211 211 213 216 216 214 214 217 218 219 221 223 225 227 227 227 229 229 229 230 230 229 229 228 226 224 224 224 226 227 229 231 232 233 233 233 232 232 232 232 233 233 234 235 235 236 236 236 236 235 234 235 237 239 240 241 243 245 246 247 248 250
190 191 193 194 193 194 195 196 197 198 198 197 194 193 196 200 202 203 210 217 220 219 215 212 211 211 212 215 216 215 214 215 217 218 220 222 224 226 226 224 226 228 228 228 229 230 230 229 228 226 225 225 226 226 226 228 229 230 232 232 233 233 233 233 234 234 234 235 235 236 236 236 237 237 236 237 239 241 241 241 243 244 246 247 248 250
190 191 193 193 193 193 195 195 196 196 196 195 192 191 194 197 198 199 203 210 216 217 216 213 212 211 212 214 216 216 215 215 217 218 219 222 224 225 226 224 224 227 228 228 228 229 229 229 229 228 227 226 228 228 227 227 227 227 229 230 231 232 232 233 233 234 234 234 235 235 236 236 237 237 238 238 239 240 241 242 243 244 245 247 248 249
189 191 192 193 193 193 194 195 194 194 194 193 190 189 190 193 196 199 201 205 209 209 211 213 212 211 212 213 215 217 216 216 218 218 218 220 223 225 226 226 225 225 227 227 228 228 228 228 229 229 229 229 230 231 230 228 228 227 227 227 229 230 231 232 232 233 233 234 235 235 236 236 236 237 237 238 238 239 239 241 242 243 245 246 248 249
189 190 192 193 193 193 195 195 194 193 193 191 189 190 191 191 194 198 200 203 204 200 203 210 212 211 213 214 214 216 217 217 219 221 220 220 222 224 226 226 225 224 224 225 227 227 227 228 228 228 229 231 231 232 232 232 231 230 229 228 228 229 231 232 233 233 233 233 234 235 235 236 236 236 237 237 238 238 239 241 242 243 244 246 247 249
189 191 192 193 193 194 195 195 194 193 193 191 189 189 191 190 190 194 199 204 204 198 197 206 212 211 212 214 215 216 218 217 218 221 222 222 223 224 225 226 226 225 224 224 225 227 227 228 228 229 230 232 232 232 233 234 234 233 232 231 229 229 230 231 233 234 235 234 234 235 236 236 237 237 238 238 239 239 240 241 242 244 245 246 248 249
Height
10901 10907 10912 10910 10906 10908 10913 10916 10918 10921 10926 10929 10930 10933 10935 10937 10940 10943 10946 10949 10950 10952 10953 10953 10954 10956 10959 10961 10963 10964 10965 10966 10968 10969 10969 10969 10969 10970 10971 10972 10973 10974 10973 10974 10973 10972 10972 10972 10972 10972 10972 10972 10973 10973 10973 10974 10976 10977 10977 10977 10978 10979 10980 10981 10982 10983 10984 10984 10985 10986 10988 10989 10990 10991 10992 10993 10994 10995 10996 10996 10997 10998 10998 10999 10999 10999
10898 10906 10903 10895 10896 10903 10909 10913 10915 10918 10922 10925 10926 10928 10931 10933 10935 10938 10942 10945 10947 10949 10951 10953 10953 10953 10955 10959 10961 10962 10963 10964 10967 10968 10968 10968 10968 10969 10969 10971 10972 10973 10973 10973 10973 10972 10971 10972 10972 10972 10973 10973 10973 10973 10974 10974 10976 10978 10978 10978 10978 10979 10980 10981 10983 10984 10984 10985 10986 10987 10988 10990 10991 10992 10993 10994 10995 10996 10997 10997 10998 10999 10999 11000 11000 11001
10897 10899 10885 10882 10891 10899 10904 10907 10910 10912 10916 10921 10922 10924 10927 10926 10929 10935 10938 10940 10942 10944 10947 10951 10950 10949 10951 10956 10959 10960 10962 10963 10964 10965 10966 10967 10967 10968 10969 10970 10971 10972 10972 10972 10973 10972 10971 10971 10972 10972 10973 10973 10973 10974 10974 10974 10975 10978 10978 10978 10979 10979 10980 10982 10983 10984 10985 10986 10987 10988 10989 10990 10992 10993 10994 10995 10996 10997 10997 10998 10999 11000 11000 11001 11001 11002
10890 10881 10866 10876 10890 10893 10897 10901 10903 10907 10913 10917 10918 10920 10920 10920 10925 10929 10931 10935 10937 10938 10942 10947 10948 10946 10949 10953 10956 10958 10960 10961 10962 10963 10964 10965 10966 10967 10968 10969 10970 10971 10972 10972 10972 10972 10971 10971 10971 10972 10973 10973 10974 10974 10975 10974 10975 10978 10979 10979 10979 10980 10981 10982 10983 10984 10985 10986 10987 10988 10989 10991 10992 10994 10995 10996 10997 10997 10998 10998 10999 11000 11001 11002 11002 11003
10877 10863 10861 10879 10886 10885 10891 10895 10899 10904 10908 10911 10913 10913 10912 10914 10919 10921 10925 10931 10932 10933 10938 10944 10946 10946 10946 10949 10951 10955 10957 10958 10959 10960 10961 10963 10964 10965 10967 10968 10969 10970 10971 10971 10971 10971 10971 10970 10971 10971 10972 10973 10974 10974 10975 10975 10975 10977 10979 10980 10980 10980 10981 10982 10983 10984 10986 10987 10988 10989 10990 10991 10993 10995 10996 10997 10998 10998 10999 10999 11000 11001 11002 11002 11003 11004
10864 10854 10862 10876 10877 10880 10887 10891 10896 10899 10901 10906 10908 10904 10902 10906 10911 10916 10923 10927 10928 10930 10934 10940 10945 10945 10943 10943 10947 10952 10954 10955 10957 10958 10959 10961 10962 10963 10965 10966 10967 10969 10970 10971 10971 10971 10971 10970 10970 10971 10972 10973 10974 10974 10974 10975 10975 10976 10979 10980 10980 10981 10981 10982 10983 10985 10986 10987 10988 10989 10990 10991 10993 10995 10996 10998 10998 10999 10999 11000 11000 11001 11002 11003 11004 11005
10855 10850 10860 10870 10871 10876 10881 10886 10890 10891 10896 10901 10898 10892 10893 10901 10907 10913 10919 10922 10925 10926 10928 10936 10941 10942 10940 10940 10944 10948 10950 10952 10954 10956 10958 10959 10960 10961 10963 10964 10965 10967 10968 10969 10970 10970 10970 10970 10970 10970 10971 10972 10973 10974 10974 10974 10975 10975 10978 10980 10981 10981 10981 10982 10983 10985 10986 10987 10988 10989 10990 10991 10993 10995 10996 10998 10999 11000 11000 11000 11001 11002 11002 11003 11004 11005
10848 10845 10857 10865 10865 10870 10877 10882 10881 10882 10889 10888 10882 10882 10888 10896 10902 10908 10914 10918 10920 10919 10924 10933 10937 10939 10940 10938 10941 10945 10947 10949 10952 10953 10955 10956 10958 10959 10960 10961 10963 10964 10966 10968 10968 10969 10969 10969 10969 10970 10971 10972 10972 10973 10974 10974 10975 10975 10977 10979 10981 10981 10981 10982 10983 10984 10986 10987 10988 10989 10990 10992 10993 10995 10996 10998 10999 11000 11001 11001 11001 11002 11003 11004 11005 11005
10834 10836 10849 10853 10855 10864 10871 10870 10867 10874 10880 10873 10871 10879 10884 10888 10895 10901 10908 10912 10913 10915 10923 10930 10933 10937 10939 10936 10938 10943 10945 10946 10947 10949 10952 10953 10955 10957 10958 10959 10960 10962 10964 10966 10967 10967 10968 10968 10968 10969 10970 10971 10971 10972 10974 10974 10975 10975 10977 10979 10981 10981 10982 10982 10983 10984 10985 10986 10988 10989 10991 10992 10993 10994 10996 10998 10999 11000 11001 11002 11002 11003 11003 11004 11005 11006
10819 10828 10835 10837 10847 10858 10859 10855 10858 10869 10870 10860 10866 10875 10876 10881 10889 10896 10904 10907 10908 10916 10923 10925 10929 10934 10935 10934 10938 10942 10941 10939 10940 10945 10949 10950 10952 10955 10956 10957 10958 10959 10961 10963 10965 10965 10966 10967 10967 10968 10969 10970 10971 10971 10972 10974 10974 10975 10976 10977 10979 10981 10982 10983 10983 10984 10985 10986 10988 10989 10990 10992 10993 10994 10996 10998 10999 11000 11001 11002 11003 11003 11004 11005 11006 11007
10811 10817 10820 10830 10843 10847 10845 10845 10851 10861 10856 10850 10861 10869 10870 10876 10884 10893 10900 10901 10906 10917 10921 10921 10925 10930 10932 10934 10937 10938 10934 10931 10934 10941 10945 10947 10949 10952 10954 10955 10956 10957 10958 10960 10962 10963 10964 10965 10966 10966 10967 10968 10970 10970 10971 10972 10973 10974 10975 10976 10978 10980 10981 10982 10983 10984 10985 10986 10988 10989 10990 10992 10993 10994 10996 10997 10999 11000 11002 11002 11003 11004 11004 11005 11006 11007
10801 10807 10815 10827 10834 10833 10835 10837 10844 10851 10847 10847 10858 10864 10866 10871 10878 10889 10895 10898 10909 10918 10917 10915 10920 10926 10930 10932 10933 10932 10927 10926 10931 10936 10940 10943 10946 10949 10951 10953 10954 10955 10956 10958 10959 10961 10962 10963 10964 10965 10966 10967 10968 10969 10970 10971 10972 10974 10974 10975 10977 10978 10980 10982 10983 10984 10985 10986 10987 10988 10990 10991 10993 10994 10995 10997 10998 11000 11001 11002 11003 11004 11004 11005 11006 11007
10792 10802 10809 10816 10820 10823 10827 10831 10837 10843 10842 10847 10854 10858 10862 10866 10874 10887 10893 10899 10909 10913 10910 10910 10916 10923 10926 10925 10927 10927 10924 10924 10927 10930 10935 10940 10942 10946 10948 10950 10952 10952 10954 10955 10956 10958 10960 10961 10962 10963 10964 10965 10966 10967 10968 10969 10971 10973 10974 10974 10976 10977 10979 10981 10982 10984 10985 10985 10986 10988 10989 10991 10993 10994 10995 10997 10998 10999 11001 11002 11003 11004 11004 11005 11006 11006
10783 10790 10794 10803 10811 10817 10824 10828 10832 10839 10841 10844 10848 10854 10860 10863 10873 10885 10891 10896 10905 10906 10903 10904 10911 10919 10919 10918 10922 10923 10919 10920 10922 10926 10932 10936 10939 10942 10945 10947 10950 10950 10951 10952 10953 10954 10956 10958 10960 10961 10963 10963 10964 10965 10966 10968 10969 10970 10972 10973 10975 10977 10978 10980 10981 10983 10984 10985 10986 10987 10989 10990 10992 10994 10995 10997 10998 10999 11000 11002 11003 11004 11004 11005 11005 11006
10771 10776 10786 10800 10811 10814 10819 10823 10828 10832 10833 10835 10841 10845 10852 10860 10871 10879 10882 10887 10894 10896 10895 10898 10907 10914 10912 10911 10914 10916 10916 10919 10921 10923 10928 10932 10935 10939 10941 10945 10946 10946 10947 10949 10950 10951 10953 10955 10956 10958 10960 10961 10962 10963 10964 10965 10967 10968 10970 10971 10973 10975 10977 10978 10980 10981 10983 10984 10986 10987 10988 10989 10991 10992 10994 10996 10997 10998 11000 11001 11003 11003 11004 11004 11005 11005
10761 10771 10782 10791 10797 10799 10807 10816 10819 10821 10825 10831 10834 10838 10851 10862 10865 10866 10870 10876 10883 10886 10888 10895 10904 10907 10903 10902 10909 10914 10917 10920 10921 10922 10925 10929 10932 10935 10939 10941 10943 10943 10944 10946 10947 10948 10949 10951 10953 10955 10957 10959 10960 10961 10962 10963 10965 10966 10968 10969 10971 10973 10975 10976 10978 10980 10981 10983 10984 10985 10987 10988 10990 10991 10993 10995 10996 10998 10999 11000 11002 11003 11003 11004 11004 11005
10753 10766 10770 10772 10781 10789 10800 10809 10808 10813 10823 10826 10828 10841 10855 10853 10847 10852 10861 10868 10876 10882 10887 10893 10899 10900 10896 10898 10907 10913 10916 10918 10920 10921 10923 10925 10927 10931 10935 10937 10939 10940 10940 10942 10943 10945 10946 10947 10949 10952 10954 10956 10957 10958 10960 10961 10962 10964 10966 10968 10969 10970 10972 10974 10976 10978 10979 10980 10982 10983 10985 10987 10988 10990 10992 10993 10995 10996 10998 10999 11000 11002 11003 11003 11004 11004
10746 10760 10758 10763 10779 10788 10793 10795 10794 10803 10811 10811 10822 10840 10840 10829 10832 10847 10856 10862 10873 10881 10885 10889 10894 10897 10894 10895 10902 10909 10913 10915 10917 10919 10920 10921 10923 10926 10929 10933 10936 10936 10937 10938 10939 10941 10943 10944 10946 10949 10951 10953 10954 10955 10957 10958 10960 10962 10964 10965 10966 10967 10969 10971 10973 10976 10977 10978 10979 10981 10983 10985 10987 10989 10990 10992 10993 10994 10996 10997 10999 11000 11001 11002 11003 11003
10739 10752 10748 10754 10770 10773 10774 10777 10779 10788 10796 10804 10819 10825 10817 10817 10832 10846 10852 10861 10872 10878 10880 10883 10889 10894 10891 10888 10895 10903 10908 10910 10912 10915 10916 10918 10919 10919 10922 10927 10930 10932 10933 10934 10935 10937 10939 10940 10942 10945 10948 10950 10951 10953 10954 10956 10957 10958 10960 10962 10963 10964 10967 10969 10972 10974 10975 10976 10977 10979 10980 10982 10985 10987 10988 10989 10991 10992 10994 10996 10997 10999 11000 11001 11002 11002
10728 10740 10737 10741 10753 10757 10757 10761 10771 10785 10795 10804 10810 10808 10808 10819 10831 10838 10845 10853 10861 10867 10872 10875 10883 10890 10885 10880 10886 10895 10900 10903 10907 10910 10913 10915 10914 10912 10914 10920 10924 10926 10929 10930 10930 10932 10934 10936 10939 10942 10944 10946 10948 10950 10952 10953 10955 10956 10958 10959 10961 10962 10964 10966 10968 10970 10972 10974 10975 10977 10978 10980 10982 10984 10985 10987 10988 10990 10992 10993 10995 10996 10998 10999 11000 11001
10716 10727 10726 10729 10741 10747 10746 10755 10774 10786 10791 10798 10803 10806 10812 10822 10828 10831 10837 10844 10850 10858 10864 10867 10876 10884 10878 10871 10876 10885 10891 10897 10902 10906 10909 10911 10910 10907 10908 10912 10917 10920 10923 10925 10926 10927 10929 10932 10936 10938 10941 10943 10945 10947 10948 10950 10952 10954 10956 10957 10959 10960 10961 10962 10964 10966 10969 10972 10974 10975 10976 10978 10980 10981 10983 10985 10986 10988 10989 10990 10992 10994 10995 10997 10998 11000
10703 10715 10717 10718 10729 10738 10742 10755 10770 10774 10777 10786 10795 10801 10807 10815 10818 10820 10830 10840 10847 10855 10860 10863 10872 10877 10869 10862 10866 10877 10886 10892 10898 10902 10905 10907 10907 10904 10902 10905 10910 10914 10918 10920 10921 10923 10925 10928 10932 10935 10937 10940 10941 10943 10945 10948 10949 10951 10953 10955 10957 10958 10958 10959 10961 10963 10967 10970 10972 10973 10974 10976 10978 10979 10981 10982 10984 10985 10986 10988 10990 10991 10993 10995 10996 10998
10690 10704 10707 10708 10719 10732 10740 10749 10757 10762 10769 10777 10786 10791 10795 10801 10805 10813 10829 10839 10842 10849 10855 10860 10868 10867 10858 10855 10862 10873 10882 10887 10892 10896 10900 10901 10902 10900 10897 10898 10904 10909 10913 10916 10917 10919 10921 10924 10928 10931 10934 10936 10937 10940 10943 10945 10946 10948 10950 10952 10954 10955 10956 10957 10958 10960 10964 10967 10970 10972 10973 10975 10976 10977 10979 10980 10981 10982 10983 10985 10987 10989 10991 10993 10994 10996
10679 10693 10698 10700 10712 10725 10732 10737 10743 10751 10759 10765 10775 10781 10784 10793 10802 10813 10825 10827 10829 10839 10845 10853 10860 10855 10849 10854 10862 10870 10877 10881 10885 10891 10894 10896 10896 10895 10892 10894 10899 10904 10908 10911 10914 10916 10919 10921 10925 10928 10930 10932 10934 10937 10939 10941 10943 10945 10947 10949 10950 10952 10953 10955 10956 10958 10960 10963 10967 10969 10971 10972 10974 10975 10977 10978 10978 10979 10981 10982 10984 10987 10989 10991 10992 10994
10666 10680 10688 10691 10697 10708 10713 10717 10725 10735 10742 10750 10761 10769 10776 10789 10798 10805 10811 10812 10818 10830 10836 10845 10849 10841 10842 10853 10858 10864 10871 10875 10880 10885 10888 10889 10889 10889 10887 10888 10894 10899 10903 10907 10910 10913 10917 10919 10922 10924 10926 10928 10930 10933 10935 10938 10941 10942 10943 10945 10947 10949 10951 10952 10953 10955 10957 10960 10964 10966 10968 10969 10970 10972 10974 10975 10976 10977 10978 10980 10982 10985 10987 10989 10990 10991
10653 10668 10678 10678 10682 10692 10698 10705 10715 10723 10731 10742 10754 10763 10772 10781 10788 10795 10800 10805 10817 10826 10831 10840 10840 10832 10838 10848 10853 10859 10865 10869 10874 10879 10881 10882 10882 10882 10881 10882 10887 10893 10898 10903 10907 10910 10914 10916 10917 10919 10922 10924 10926 10929 10931 10934 10937 10939 10941 10943 10944 10946 10948 10949 10950 10951 10953 10956 10959 10962 10964 10965 10967 10969 10971 10973 10973 10975 10976 10978 10980 10982 10984 10986 10988 10989
10641 10656 10667 10668 10673 10685 10694 10702 10712 10719 10730 10744 10753 10761 10768 10774 10782 10788 10793 10804 10815 10820 10827 10835 10830 10825 10835 10844 10848 10854 10859 10863 10869 10872 10874 10875 10875 10875 10876 10876 10881 10886 10892 10898 10903 10907 10910 10912 10913 10915 10917 10920 10922 10925 10928 10930 10933 10936 10938 10940 10941 10943 10944 10946 10947 10949 10950 10953 10955 10957 10960 10962 10964 10966 10969 10970 10971 10973 10974 10976 10978 10980 10981 10983 10985 10986
10629 10644 10656 10660 10665 10677 10686 10696 10708 10716 10728 10741 10748 10755 10762 10768 10775 10782 10792 10804 10809 10813 10823 10828 10820 10820 10832 10840 10843 10849 10854 10859 10864 10865 10867 10869 10869 10870 10871 10873 10877 10881 10887 10893 10899 10903 10906 10908 10909 10911 10913 10916 10918 10921 10924 10927 10929 10932 10934 10937 10938 10940 10941 10943 10945 10946 10948 10949 10951 10953 10956 10958 10961 10963 10965 10967 10968 10969 10971 10973 10975 10977 10978 10980 10981 10983
10618 10632 10645 10651 10656 10667 10678 10689 10700 10709 10720 10731 10739 10746 10752 10758 10767 10779 10791 10798 10801 10809 10819 10816 10811 10817 10828 10833 10836 10842 10849 10855 10858 10858 10861 10863 10864 10865 10867 10870 10874 10878 10884 10889 10894 10898 10901 10903 10905 10907 10909 10912 10914 10917 10921 10923 10926 10928 10930 10933 10934 10936 10938 10940 10941 10943 10945 10946 10948 10950 10952 10955 10958 10960 10962 10963 10964 10965 10968 10970 10972 10974 10975 10977 10978 10980
10607 10620 10635 10643 10649 10661 10671 10679 10690 10701 10710 10720 10729 10737 10744 10752 10763 10775 10783 10787 10794 10804 10806 10802 10804 10812 10819 10825 10830 10837 10845 10851 10853 10854 10856 10859 10860 10861 10863 10866 10870 10875 10881 10885 10889 10892 10895 10898 10900 10902 10905 10908 10910 10912 10916 10919 10922 10924 10926 10929 10931 10933 10935 10936 10938 10940 10941 10943 10946 10948 10950 10952 10954 10956 10958 10959 10961 10963 10966 10968 10970 10971 10972 10974 10976 10977
10597 10610 10625 10635 10642 10652 10660 10667 10681 10692 10699 10708 10721 10731 10740 10748 10759 10767 10771 10776 10785 10792 10793 10795 10801 10806 10814 10821 10826 10833 10842 10846 10848 10850 10851 10854 10855 10856 10859 10862 10865 10872 10877 10881 10884 10887 10889 10892 10894 10897 10901 10903 10904 10907 10910 10914 10917 10920 10923 10926 10928 10930 10931 10933 10934 10936 10938 10940 10943 10945 10947 10948 10950 10952 10954 10956 10958 10961 10963 10965 10966 10968 10969 10971 10972 10973
10588 10600 10615 10626 10633 10640 10648 10657 10669 10679 10688 10699 10714 10726 10733 10740 10748 10754 10760 10768 10778 10783 10786 10793 10798 10802 10810 10818 10823 10830 10838 10841 10844 10846 10846 10848 10851 10852 10854 10856 10860 10866 10872 10877 10880 10882 10884 10887 10889 10892 10896 10898 10899 10902 10905 10909 10913 10916 10919 10921 10923 10926 10927 10929 10931 10933 10935 10937 10939 10941 10943 10944 10946 10948 10950 10953 10955 10958 10960 10962 10963 10964 10966 10967 10969 10970
10578 10591 10606 10617 10622 10630 10639 10647 10657 10669 10679 10692 10706 10717 10723 10729 10736 10745 10754 10763 10771 10776 10782 10788 10791 10795 10804 10813 10820 10826 10832 10836 10840 10841 10842 10844 10846 10847 10848 10850 10854 10862 10868 10872 10875 10877 10880 10881 10883 10886 10889 10891 10894 10896 10899 10903 10908 10911 10913 10916 10919 10922 10924 10926 10927 10929 10931 10933 10934 10936 10938 10940 10942 10944 10946 10949 10951 10954 10956 10958 10959 10960 10962 10964 10966 10967
10570 10584 10598 10607 10612 10621 10630 10637 10649 10661 10671 10683 10697 10708 10713 10720 10729 10738 10747 10757 10764 10770 10776 10780 10782 10789 10801 10811 10817 10822 10827 10832 10835 10836 10837 10840 10842 10843 10843 10845 10850 10858 10864 10867 10870 10873 10876 10877 10878 10880 10883 10886 10888 10891 10895 10899 10902 10906 10910 10913 10916 10918 10920 10922 10924 10926 10928 10929 10930 10932 10934 10937 10938 10940 10943 10945 10948 10950 10952 10953 10955 10957 10959 10961 10962 10963
10563 10577 10589 10596 10603 10612 10619 10628 10642 10652 10662 10677 10691 10699 10705 10713 10724 10734 10743 10752 10759 10764 10767 10769 10774 10786 10799 10807 10813 10819 10822 10826 10829 10830 10832 10836 10839 10838 10838 10841 10847 10854 10860 10863 10865 10868 10871 10873 10874 10876 10878 10881 10885 10887 10890 10893 10897 10902 10906 10909 10912 10914 10916 10918 10920 10922 10924 10925 10927 10928 10931 10933 10935 10937 10939 10941 10944 10946 10947 10949 10951 10953 10955 10957 10958 10960
10556 10569 10579 10586 10594 10603 10610 10622 10637 10646 10657 10673 10686 10692 10698 10707 10718 10728 10737 10744 10749 10754 10758 10762 10770 10783 10795 10803 10809 10815 10817 10820 10824 10824 10826 10832 10833 10832 10834 10838 10843 10850 10856 10858 10860 10862 10865 10867 10869 10871 10873 10876 10880 10882 10885 10888 10892 10897 10900 10903 10906 10909 10911 10914 10916 10918 10920 10922 10923 10925 10927 10929 10931 10934 10936 10938 10939 10941 10942 10944 10947 10949 10952 10953 10954 10956
10548 10561 10570 10577 10586 10595 10605 10619 10634 10643 10652 10667 10677 10682 10688 10698 10709 10720 10728 10734 10741 10747 10751 10758 10768 10780 10791 10798 10805 10809 10812 10815 10818 10818 10821 10825 10826 10828 10832 10835 10839 10845 10851 10854 10855 10857 10859 10861 10863 10866 10869 10871 10874 10877 10879 10883 10887 10891 10894 10898 10901 10904 10906 10909 10911 10914 10916 10918 10920 10921 10923 10925 10927 10929 10931 10933 10934 10936 10937 10940 10942 10945 10947 10949 10950 10951
10541 10553 10562 10570 10579 10589 10601 10616 10630 10640 10650 10660 10669 10674 10680 10691 10703 10714 10722 10729 10735 10741 10746 10755 10766 10777 10786 10793 10799 10804 10806 10808 10811 10814 10816 10818 10820 10825 10829 10832 10834 10840 10846 10850 10851 10851 10853 10856 10858 10861 10863 10866 10868 10871 10874 10877 10881 10885 10888 10892 10895 10898 10901 10904 10907 10909 10912 10914 10917 10918 10920 10922 10923 10925 10927 10928 10929 10931 10933 10935 10938 10940 10942 10943 10945 10946
10533 10546 10556 10565 10575 10585 10597 10611 10625 10638 10647 10654 10661 10668 10676 10686 10699 10709 10716 10722 10727 10733 10740 10749 10760 10771 10780 10787 10794 10799 10801 10802 10806 10811 10811 10812 10815 10821 10825 10827 10830 10835 10841 10845 10846 10847 10849 10851 10854 10856 10859 10861 10863 10866 10869 10873 10877 10880 10884 10887 10890 10893 10896 10899 10902 10905 10908 10911 10913 10915 10916 10918 10919 10920 10922 10923 10925 10926 10928 10930 10932 10935 10937 10938 10939 10940
10528 10542 10551 10560 10572 10583 10595 10609 10622 10632 10638 10644 10654 10664 10671 10680 10690 10699 10706 10712 10719 10726 10734 10743 10754 10764 10773 10781 10788 10793 10795 10797 10803 10807 10806 10805 10808 10814 10819 10822 10825 10830 10835 10838 10840 10843 10845 10848 10850 10852 10854 10857 10859 10862 10865 10869 10872 10876 10879 10882 10886 10889 10892 10895 10899 10901 10904 10907 10909 10911 10912 10914 10915 10916 10917 10919 10920 10922 10924 10925 10927 10930 10931 10932 10934 10935
10525 10537 10545 10553 10567 10579 10590 10603 10615 10622 10629 10639 10649 10657 10663 10672 10680 10687 10694 10703 10712 10721 10729 10738 10748 10758 10767 10774 10781 10785 10788 10792 10798 10801 10801 10800 10802 10808 10814 10817 10820 10825 10829 10832 10835 10839 10841 10844 10846 10848 10850 10852 10855 10858 10861 10864 10867 10871 10874 10877 10881 10884 10887 10891 10894 10897 10899 10902 10904 10906 10908 10909 10910 10911 10912 10914 10916 10917 10919 10920 10922 10924 10926 10927 10929 10930
10518 10530 10538 10548 10561 10572 10583 10596 10608 10616 10626 10636 10645 10652 10658 10664 10670 10677 10686 10695 10704 10714 10725 10736 10744 10752 10760 10767 10773 10777 10781 10786 10792 10795 10796 10796 10797 10802 10809 10813 10816 10820 10823 10827 10831 10834 10838 10840 10842 10844 10846 10848 10851 10854 10857 10860 10862 10866 10869 10872 10875 10878 10882 10885 10888 10891 10894 10897 10899 10901 10903 10905 10906 10907 10909 10910 10912 10913 10914 10916 10918 10919 10921 10922 10923 10924
10512 10523 10532 10543 10556 10567 10577 10590 10603 10613 10622 10632 10642 10650 10655 10658 10662 10670 10679 10687 10696 10708 10721 10732 10740 10748 10754 10760 10766 10771 10775 10780 10785 10789 10792 10792 10793 10797 10803 10808 10811 10815 10819 10823 10827 10830 10833 10836 10838 10840 10842 10844 10846 10849 10852 10855 10858 10860 10863 10866 10869 10872 10876 10879 10882 10885 10888 10891 10893 10895 10897 10899 10901 10903 10905 10906 10908 10909 10910 10911 10913 10914 10915 10916 10917 10918
10507 10518 10527 10538 10552 10562 10572 10585 10598 10608 10617 10628 10637 10644 10650 10654 10659 10667 10674 10681 10691 10704 10717 10727 10734 10741 10747 10753 10759 10764 10768 10773 10779 10784 10787 10789 10789 10792 10797 10802 10806 10810 10814 10818 10822 10825 10828 10831 10833 10836 10838 10839 10842 10844 10847 10850 10853 10855 10858 10861 10864 10867 10870 10873 10877 10880 10883 10885 10888 10890 10892 10894 10896 10898 10900 10902 10904 10904 10905 10906 10907 10909 10910 10911 10911 10912
10502 10512 10521 10532 10546 10558 10570 10583 10595 10603 10612 10623 10632 10641 10649 10655 10660 10667 10674 10679 10689 10701 10713 10722 10729 10735 10740 10745 10751 10758 10762 10767 10773 10778 10781 10784 10786 10787 10791 10797 10801 10805 10809 10813 10816 10820 10823 10826 10829 10831 10834 10836 10838 10840 10842 10845 10848 10851 10853 10856 10859 10862 10865 10868 10871 10874 10877 10880 10883 10885 10887 10889 10891 10893 10895 10898 10899 10900 10900 10902 10903 10904 10904 10905 10906 10907
10498 10507 10517 10528 10541 10555 10567 10580 10590 10599 10609 10619 10630 10642 10650 10654 10659 10668 10673 10678 10686 10698 10709 10718 10724 10729 10733 10737 10743 10750 10756 10760 10766 10771 10775 10778 10781 10783 10786 10791 10795 10799 10804 10808 10811 10814 10817 10821 10824 10827 10830 10832 10835 10837 10839 10841 10844 10846 10849 10851 10854 10857 10859 10862 10865 10868 10871 10874 10876 10879 10882 10884 10886 10888 10891 10893 10894 10895 10896 10897 10898 10898 10899 10900 10901 10902
10495 10504 10513 10525 10539 10552 10563 10574 10585 10597 10608 10618 10629 10641 10648 10650 10657 10665 10669 10673 10680 10691 10703 10712 10718 10722 10726 10730 10736 10744 10750 10754 10759 10765 10770 10773 10776 10778 10781 10785 10789 10793 10798 10803 10806 10809 10812 10815 10819 10822 10826 10829 10832 10834 10836 10838 10840 10842 10844 10847 10849 10851 10854 10857 10859 10862 10865 10867 10870 10873 10876 10878 10881 10883 10886 10888 10889 10890 10891 10892 10892 10893 10894 10894 10896 10897
10491 10501 10511 10523 10536 10547 10555 10566 10578 10591 10602 10613 10624 10634 10642 10647 10653 10659 10663 10667 10674 10683 10694 10704 10711 10716 10719 10725 10731 10737 10743 10748 10753 10759 10765 10769 10772 10774 10777 10780 10784 10788 10793 10797 10800 10803 10807 10810 10814 10818 10822 10826 10828 10830 10832 10834 10836 10838 10840 10842 10844 10846 10848 10850 10853 10856 10858 10861 10863 10866 10869 10872 10875 10877 10879 10881 10882 10884 10885 10885 10886 10887 10888 10889 10890 10891
10489 10499 10509 10520 10532 10542 10550 10560 10572 10584 10596 10607 10618 10629 10637 10643 10649 10655 10659 10663 10670 10679 10687 10694 10702 10708 10713 10718 10725 10730 10736 10742 10747 10753 10759 10763 10767 10770 10772 10775 10779 10783 10788 10792 10795 10798 10802 10806 10810 10813 10817 10821 10824 10826 10828 10830 10831 10833 10835 10837 10839 10840 10842 10844 10847 10849 10852 10854 10857 10860 10863 10866 10868 10870 10872 10873 10875 10877 10878 10878 10879 10881 10882 10883 10885 10886
10487 10496 10505 10517 10530 10539 10546 10556 10567 10578 10589 10601 10613 10623 10632 10639 10645 10651 10656 10660 10667 10676 10683 10687 10693 10700 10706 10712 10718 10723 10730 10736 10741 10747 10753 10758 10761 10765 10767 10770 10774 10778 10783 10787 10790 10794 10797 10801 10805 10809 10812 10815 10818 10820 10822 10824 10826 10828 10830 10832 10834 10836 10837 10839 10841 10843 10846 10848 10851 10854 10856 10859 10861 10862 10864 10866 10868 10869 10870 10871 10873 10874 10876 10878 10879 10880
10486 10494 10503 10514 10526 10534 10542 10552 10563 10574 10584 10595 10605 10615 10625 10633 10640 10646 10652 10656 10662 10670 10678 10682 10687 10693 10700 10706 10712 10717 10723 10729 10734 10740 10746 10751 10755 10759 10762 10765 10769 10773 10778 10782 10786 10789 10793 10796 10800 10803 10806 10809 10812 10814 10816 10818 10821 10823 10825 10827 10829 10831 10833 10835 10836 10838 10840 10842 10844 10847 10850 10851 10853 10855 10857 10859 10861 10862 10864 10865 10867 10868 10870 10872 10873 10874